TimeCST,TemperatureF,Dew PointF,Humidity,Sea Level PressureIn,VisibilityMPH,Wind Direction,Wind SpeedMPH,Gust SpeedMPH,PrecipitationIn,Events,Conditions,WindDirDegrees,DateUTC
12:15 AM,6.8,3.2,85,30.17,10.0,Calm,Calm,-,N/A,,Clear,0,2013-03-03 06:15:00
12:35 AM,8.6,3.2,79,30.16,10.0,Calm,Calm,-,N/A,,Clear,0,2013-03-03 06:35:00
12:55 AM,6.8,3.2,85,30.16,10.0,Calm,Calm,-,N/A,,Clear,0,2013-03-03 06:55:00
1:15 AM,3.2,1.4,92,30.16,10.0,Calm,Calm,-,N/A,,Clear,0,2013-03-03 07:15:00
1:35 AM,5.0,1.4,85,30.15,10.0,Calm,Calm,-,N/A,,Clear,0,2013-03-03 07:35:00
1:55 AM,3.2,-0.4,85,30.15,10.0,Calm,Calm,-,N/A,,Clear,0,2013-03-03 07:55:00
2:15 AM,5.0,1.4,85,30.15,10.0,Calm,Calm,-,N/A,,Clear,0,2013-03-03 08:15:00
2:35 AM,5.0,1.4,85,30.14,10.0,Calm,Calm,-,N/A,,Clear,0,2013-03-03 08:35:00
2:55 AM,3.2,-0.4,85,30.13,10.0,Calm,Calm,-,N/A,,Scattered Clouds,0,2013-03-03 08:55:00
3:15 AM,3.2,-0.4,85,30.13,10.0,Calm,Calm,-,N/A,,Scattered Clouds,0,2013-03-03 09:15:00
3:35 AM,3.2,-2.2,78,30.13,10.0,Calm,Calm,-,N/A,,Clear,0,2013-03-03 09:35:00
3:55 AM,1.4,-4.0,78,30.14,10.0,Calm,Calm,-,N/A,,Scattered Clouds,0,2013-03-03 09:55:00
4:15 AM,3.2,-0.4,85,30.14,10.0,Calm,Calm,-,N/A,,Overcast,0,2013-03-03 10:15:00
4:35 AM,3.2,-0.4,85,30.13,10.0,Calm,Calm,-,N/A,,Overcast,0,2013-03-03 10:35:00
4:55 AM,3.2,-0.4,85,30.13,10.0,Calm,Calm,-,N/A,,Overcast,0,2013-03-03 10:55:00
5:15 AM,5.0,-0.4,78,30.13,10.0,Calm,Calm,-,N/A,,Overcast,0,2013-03-03 11:15:00
5:35 AM,5.0,1.4,85,30.13,10.0,Calm,Calm,-,N/A,,Overcast,0,2013-03-03 11:35:00
5:55 AM,6.8,1.4,79,30.14,10.0,Calm,Calm,-,N/A,,Overcast,0,2013-03-03 11:55:00
6:15 AM,6.8,3.2,85,30.14,10.0,Calm,Calm,-,N/A,,Overcast,0,2013-03-03 12:15:00
6:35 AM,8.6,3.2,79,30.14,10.0,Calm,Calm,-,N/A,,Overcast,0,2013-03-03 12:35:00
6:55 AM,8.6,3.2,79,30.14,10.0,Calm,Calm,-,N/A,,Overcast,0,2013-03-03 12:55:00
7:15 AM,8.6,3.2,79,30.14,10.0,Calm,Calm,-,N/A,,Overcast,0,2013-03-03 13:15:00
7:35 AM,10.4,3.2,73,30.14,10.0,Calm,Calm,-,N/A,,Overcast,0,2013-03-03 13:35:00
7:55 AM,12.2,3.2,67,30.14,10.0,Calm,Calm,-,N/A,,Overcast,0,2013-03-03 13:55:00
8:15 AM,14.0,5.0,67,30.13,10.0,SSE,3.5,-,N/A,,Overcast,150,2013-03-03 14:15:00
8:35 AM,15.8,5.0,62,30.13,10.0,Calm,Calm,-,N/A,,Overcast,0,2013-03-03 14:35:00
8:55 AM,17.6,5.0,58,30.13,10.0,Calm,Calm,-,N/A,,Overcast,0,2013-03-03 14:55:00
9:15 AM,19.4,5.0,54,30.12,10.0,SSE,5.8,-,N/A,,Overcast,150,2013-03-03 15:15:00
9:35 AM,21.2,3.2,46,30.12,10.0,South,6.9,-,N/A,,Mostly Cloudy,180,2013-03-03 15:35:00
9:55 AM,23.0,1.4,39,30.12,10.0,SE,5.8,-,N/A,,Scattered Clouds,140,2013-03-03 15:55:00
10:15 AM,24.8,-5.8,26,30.11,10.0,South,8.1,-,N/A,,Scattered Clouds,180,2013-03-03 16:15:00
10:35 AM,26.6,-4.0,26,30.11,10.0,South,10.4,-,N/A,,Scattered Clouds,180,2013-03-03 16:35:00
10:55 AM,26.6,-5.8,24,30.11,10.0,South,10.4,-,N/A,,Clear,180,2013-03-03 16:55:00
11:15 AM,28.4,-4.0,25,30.11,10.0,South,9.2,-,N/A,,Clear,170,2013-03-03 17:15:00
11:35 AM,28.4,-2.2,27,30.10,10.0,South,8.1,-,N/A,,Clear,190,2013-03-03 17:35:00
11:55 AM,28.4,-4.0,25,30.10,10.0,South,8.1,-,N/A,,Clear,180,2013-03-03 17:55:00
12:15 PM,30.2,-2.2,25,30.09,10.0,South,8.1,-,N/A,,Clear,180,2013-03-03 18:15:00
12:35 PM,30.2,-4.0,23,30.08,10.0,South,6.9,-,N/A,,Clear,190,2013-03-03 18:35:00
12:55 PM,30.2,-4.0,23,30.07,10.0,South,8.1,-,N/A,,Clear,170,2013-03-03 18:55:00
1:15 PM,32.0,-4.0,21,30.06,10.0,South,8.1,-,N/A,,Clear,170,2013-03-03 19:15:00
1:35 PM,32.0,-2.2,23,30.05,10.0,South,9.2,-,N/A,,Clear,190,2013-03-03 19:35:00
1:55 PM,32.0,-2.2,23,30.04,10.0,South,10.4,-,N/A,,Clear,180,2013-03-03 19:55:00
2:15 PM,32.0,-2.2,23,30.04,10.0,South,10.4,-,N/A,,Clear,180,2013-03-03 20:15:00
2:35 PM,32.0,-2.2,23,30.03,10.0,South,6.9,-,N/A,,Clear,190,2013-03-03 20:35:00
2:55 PM,32.0,-0.4,25,30.03,10.0,South,8.1,-,N/A,,Scattered Clouds,180,2013-03-03 20:55:00
3:35 PM,32.0,-0.4,25,30.03,10.0,South,5.8,-,N/A,,Clear,190,2013-03-03 21:35:00
3:55 PM,32.0,-0.4,25,30.03,10.0,South,8.1,-,N/A,,Scattered Clouds,170,2013-03-03 21:55:00
4:15 PM,32.0,-0.4,25,30.02,10.0,South,5.8,-,N/A,,Clear,170,2013-03-03 22:15:00
4:35 PM,32.0,-0.4,25,30.03,10.0,South,4.6,-,N/A,,Clear,170,2013-03-03 22:35:00
4:55 PM,32.0,-0.4,25,30.02,10.0,SSE,5.8,-,N/A,,Clear,160,2013-03-03 22:55:00
5:15 PM,30.2,-0.4,27,30.02,10.0,SSE,5.8,-,N/A,,Clear,150,2013-03-03 23:15:00
5:35 PM,30.2,-0.4,27,30.02,10.0,South,3.5,-,N/A,,Clear,170,2013-03-03 23:35:00
5:55 PM,28.4,-0.4,29,30.02,10.0,South,3.5,-,N/A,,Clear,180,2013-03-03 23:55:00
6:15 PM,28.4,1.4,31,30.03,10.0,Calm,Calm,-,N/A,,Clear,0,2013-03-04 00:15:00
6:35 PM,23.0,1.4,39,30.03,10.0,Calm,Calm,-,N/A,,Clear,0,2013-03-04 00:35:00
6:55 PM,23.0,3.2,43,30.04,10.0,Calm,Calm,-,N/A,,Clear,0,2013-03-04 00:55:00
7:15 PM,21.2,3.2,46,30.05,10.0,Calm,Calm,-,N/A,,Clear,0,2013-03-04 01:15:00
7:35 PM,21.2,5.0,50,30.05,10.0,Calm,Calm,-,N/A,,Clear,0,2013-03-04 01:35:00
7:55 PM,17.6,5.0,58,30.04,10.0,Calm,Calm,-,N/A,,Clear,0,2013-03-04 01:55:00
8:15 PM,17.6,3.2,53,30.04,10.0,Calm,Calm,-,N/A,,Clear,0,2013-03-04 02:15:00
8:35 PM,17.6,5.0,58,30.04,10.0,Calm,Calm,-,N/A,,Clear,0,2013-03-04 02:35:00
8:55 PM,17.6,3.2,53,30.04,10.0,Calm,Calm,-,N/A,,Scattered Clouds,0,2013-03-04 02:55:00
9:15 PM,17.6,3.2,53,30.04,10.0,Calm,Calm,-,N/A,,Scattered Clouds,0,2013-03-04 03:15:00
9:35 PM,15.8,3.2,58,30.04,10.0,Calm,Calm,-,N/A,,Clear,0,2013-03-04 03:35:00
9:55 PM,14.0,3.2,62,30.04,10.0,East,3.5,-,N/A,,Clear,80,2013-03-04 03:55:00
10:15 PM,14.0,3.2,62,30.03,10.0,ESE,3.5,-,N/A,,Clear,110,2013-03-04 04:15:00
10:35 PM,14.0,1.4,57,30.03,10.0,ESE,4.6,-,N/A,,Clear,120,2013-03-04 04:35:00
10:55 PM,21.2,1.4,42,30.03,10.0,ESE,4.6,-,N/A,,Clear,110,2013-03-04 04:55:00
11:15 PM,21.2,1.4,42,30.03,10.0,East,5.8,-,N/A,,Clear,100,2013-03-04 05:15:00
11:35 PM,21.2,5.0,50,30.03,10.0,East,5.8,-,N/A,,Clear,100,2013-03-04 05:35:00
11:55 PM,21.2,6.8,54,30.03,10.0,ESE,5.8,-,N/A,,Clear,110,2013-03-04 05:55:00